Location: Saluda
(35.2377°N, 82.3468°W)
Time: 05:21:15
(UTC+00:00)

Vanguard 2 Rocket - Pass Details

Date: 10 October 2022
Orbit: 555 x 3321 km, 32.9° (Epoch: 04 December)

Event Time Altitude Azimuth Distance (km) Brightness Sun altitude
Rises 01:00:22 0° 232° (SW) 7,188 12.1 -24.9°
Reaches altitude 10° 01:05:14 10° 229° (SW) 6,255 11.6 -25.9°
Maximum altitude 01:24:50 59° 156° (SSE) 3,311 9.4 -29.8°
Enters shadow 01:30:04 46° 109° (ESE) 3,385 9.2 -30.8°
Drops below altitude 10° 01:39:12 10° 82° (E) 4,757 - -32.6°
Sets 01:42:18 0° 79° (ENE) 5,448 - -33.2°
